Погода в Джунии

Ливан     33°59′38″N   35°38′02″E
темп.,
°C
ветер,
м/с
пор.,
м/с
влажн.,
%
обл.,
%
осадки,
мм/ч
давл.,
гПа
погр.,
м
10 августа, ср
ср1000:00+17ю12840 0.0 101088
03:00+17ююв22790 0.0 100969
06:00+17ююв12800 0.0 100960
09:00+21зюз33650 0.0 1009592
12:00+24з54520 0.0 1009864
15:00+24з55540 0.0 1008888
18:00+22зюз43630 0.0 1008643
21:00+19юз12720 0.0 1009114
11 августа, чт
чт1100:00+18ю12850 0.0 100991
03:00+17ю22800 0.0 100878
06:00+17ююв22770 0.0 100958
09:00+23зюз33450 0.0 1009592
12:00+25з54530 0.0 1009887
15:00+25з53530 0.0 1008822
18:00+23з32590 0.0 1009523
21:00+19зсз01780 0.0 101087
12 августа, пт
пт1200:00+19в01610 0.0 101056
03:00+18в01470 0.0 100941
06:00+18всв01380 0.0 101012
09:00+23зсз31360 0.0 1010416
12:00+26зсз42430 0.0 1009678
15:00+26зсз42490 0.0 1009576
18:00+23зсз31580 0.0 1009358
21:00+20ю01700 0.0 101056
13 августа, сб
сб1300:00+19зюз01540 0.0 101037
03:00+18ююз11520 0.0 101033
06:00+18в01400 0.0 101016
09:00+23з31350 0.0 1009349
12:00+26з42400 0.0 1009586
15:00+25з42530 0.0 1009538
18:00+22з32640 0.0 1009341
21:00+19юз11700 0.0 100960
14 августа, вс
вс1400:00+18юз11610 0.0 100946
03:00+18ю11430 0.0 100835
06:00+18ююв11270 0.0 100811
09:00+23з32320 0.0 1009407
12:00+25з53480 0.0 1008699
15:00+25з53570 0.0 1008604
18:00+23з32650 0.0 1008420
21:00+19юз11750 0.0 100975